Location: Ecklingerode
(51.5036°N, 10.3122°E)
Time: 13:57:39
(UTC+00:00)

Cosmos 1486 Rocket - Pass Details

Date: 29 October 2020
Orbit: 758 x 784 km, 74.1° (Epoch: 28 November)

Event Time Altitude Azimuth Distance (km) Brightness Sun altitude
Rises 17:03:50 0° 335° (NNW) 3,286 7.5 -10.9°
Reaches altitude 10° 17:06:14 10° 336° (NNW) 2,354 6.7 -11.3°
Maximum altitude 17:11:36 84° 65° (ENE) 795 4.0 -12.1°
Drops below altitude 10° 17:16:55 10° 154° (SSE) 2,330 6.3 -13.0°
Sets 17:19:17 0° 155° (SSE) 3,250 7.1 -13.3°
